Terminal Aerodrome Forecast
Issued by NWS

Home | Current Version | Previous Version | Text Only | Print | Product List | Glossary On
Versions: 1 2 3 4 5 6 7 8 9 10 11 12 13 14 15 16 17 18 19 20 21 22 23 24 25 26 27 28 29 30 31 32 33 34 35 36 37 38 39 40 41 42 43 44 45 46 47 48 49
000
FTUS45 KBOU 281737
TAFBJC
TAF
KBJC 281737Z 2818/2918 34008KT P6SM FEW060 SCT150
     FM282100 32008KT P6SM SCT060 BKN100
      TEMPO 2822/2902 VRB20G30KT -TSRA BKN050CB
     FM290300 25006KT P6SM SCT060 BKN100
     FM291100 33009KT P6SM FEW008 SCT030 BKN150=

USA.gov is the U.S. government's official web portal to all federal, state and local government web resources and services.